Current weather by "City, St" or "zip code"  
 

Current Conditions: San Diego International Airport, CA

Fog/Mist


61.0 F

Last Updated on Oct 31 2020, 12:51 am PDT
Humidity: 84%
Wind Speed: N 0.0 mph
Barometer 30.00 in
Dewpoint: 55.9 F
Visibility: 3.00 mi
Precip: --
Heat Index: NA
Wind Chill: NA
Current conditions at:

San Diego International Airport, CA (KSAN)

Lat: 32.73361 Lon: 117.18306

Local Radar Image active severe weather and emergency alerts image image weather storm and storm spotter reports image weather observation monitoring service image
Local
Radar
Active
Alerts
Storm Reports Obs
Monitoring

Sign-up For Email & Text Message Weather Alert Notification Services



Advertise Here

Observation History for San Diego International Airport, CA


Time Wind
(mph)
Vis
(mi)
Weather Precip (in) Temperature (F) Relative
Humidity
Wind
Chill
(F)
Heat
Index
(F)
Pressure
Air Dwpt altimeter
(in)
sea level
(mb)
Rmks
12:51 am PDT N 0.0 3.00 Fog/Mist -- 61.0 55.9 84% NA NA 30.00 1015.8
11:51 pm PDT N 0.0 4.00 Fog/Mist -- 62.0 57.0 84% NA NA 30.01 1016.0
10:51 pm PDT N 0.0 4.00 Fog/Mist -- 64.0 59.0 84% NA NA 30.01 1016.2
9:51 pm PDT N 0.0 7.00 A Few Clouds -- 66.0 60.1 81% NA NA 30.00 1015.8
8:51 pm PDT N 0.0 6.00 Fog/Mist -- 65.0 60.1 84% NA NA 29.99 1015.5
7:51 pm PDT 3.5 8.00 Partly Cloudy -- 68.0 62.1 81% NA NA 29.98 1015.1
6:51 pm PDT N 0.0 10.00 Partly Cloudy -- 69.0 60.1 73% NA NA 29.96 1014.5
5:51 pm PDT W 4.6 10.00 Mostly Cloudy -- 71.0 59.0 66% NA NA 29.95 1014.1
4:51 pm PDT W 9.2 10.00 Partly Cloudy -- 72.0 59.0 64% NA NA 29.94 1013.9
3:51 pm PDT W 9.2 10.00 Partly Cloudy -- 74.0 52.0 46% NA NA 29.93 1013.6
2:51 pm PDT NW 9.2 10.00 Mostly Cloudy -- 75.0 55.0 50% NA NA 29.93 1013.6
1:51 pm PDT 5.8 10.00 Partly Cloudy -- 75.0 54.0 48% NA NA 29.95 1014.2
12:51 pm PDT NW 5.8 10.00 Partly Cloudy -- 75.0 55.9 52% NA NA 29.98 1015.2
11:51 am PDT NW 5.8 10.00 A Few Clouds -- 77.0 51.1 40% NA NA 30.00 1015.9
10:51 am PDT NW 3.5 10.00 A Few Clouds -- 74.0 44.1 34% NA NA 30.01 1016.3
9:51 am PDT N 0.0 10.00 A Few Clouds -- 70.0 46.9 44% NA NA 30.03 1016.8
8:51 am PDT N 0.0 10.00 A Few Clouds -- 65.0 48.0 54% NA NA 30.03 1016.7
7:51 am PDT N 0.0 10.00 A Few Clouds -- 56.0 46.0 70% NA NA 30.01 1016.0
6:51 am PDT N 0.0 10.00 A Few Clouds -- 55.0 46.0 72% NA NA 30.00 1015.7
5:51 am PDT N 0.0 10.00 A Few Clouds -- 54.0 46.9 77% NA NA 29.99 1015.5
4:51 am PDT N 0.0 8.00 A Few Clouds -- 56.0 48.9 77% NA NA 29.98 1015.2
3:51 am PDT N 0.0 6.00 A Few Clouds with Haze -- 57.0 51.1 81% NA NA 29.98 1015.2
2:51 am PDT N 0.0 5.00 Fair with Haze -- 59.0 53.1 81% NA NA 29.99 1015.5

Regional Weather Observation


San Diego, Montgomery Field, CA (KMYF)

Fair with Haze
57.0 F

San Diego International Airport, CA (KSAN)

Fog/Mist
61.0 F

San Diego, North Island, Naval Air Station, CA (KNZY)

Fog
62.0 F

Carlsbad, McClellan-Palomar Airport, CA (KCRQ)

Fair
59.0 F

Oceanside, Oceanside Municipal Airport, CA (KOKB)

Fog/Mist
49.0 F

Imperial Beach Naval Outlying Field - Ream Field, CA (KNRS)

Overcast
NULL F